999  
NZUS99 KDVN 242010  
HRRRRR  
HOURLY WEATHER ROUNDUP  
NATIONAL WEATHER SERVICE QUAD CITIES IA IL  
200 PM CST WED FEB 24 2021  
 
NOTE: "FAIR" INDICATES FEW OR NO CLOUDS BELOW 12,000 FEET WITH  
NO SIGNIFICANT WEATHER AND/OR OBSTRUCTIONS TO VISIBILITY.  
------------------------------------------------------------------  
 
CITY SKY/WX TMP DP RH WIND PRES REMARKS  
BURLINGTON CLOUDY 38 31 76 NW16G24 30.06R WCI 29  
CEDAR RAPIDS CLOUDY 37 29 72 N15 30.05R WCI 28  
DAVENPORT CLOUDY 37 30 75 W14 30.04R WCI 28  
DUBUQUE PTSUNNY 39 28 64 N16 29.99R WCI 30  
IOWA CITY CLOUDY 38 30 73 NW12 30.08R WCI 30  
MOLINE CLOUDY 40 30 67 NW16 30.02R WCI 31  
------------------------------------------------------------------  
THE STATIONS BELOW ARE NOT NWS STATIONS AND ARE NOT SUBJECT TO NWS  
QUALITY CONTROL. SOME STATIONS DO NOT REPORT WEATHER SUCH AS FOG.  
* - STATIONS THAT REPORT TMP AND DP IN WHOLE DEGREES CELSIUS, WHICH  
ARE THEN CONVERTED TO FAHRENHEIT.  
------------------------------------------------------------------  
 
CITY SKY/WX TMP DP RH WIND PRES REMARKS  
CLINTON CLOUDY 38 31 76 NW17 30.01R WCI 28  
FAIRFIELD * CLOUDY 36 36 100 NW14 30.09R WCI 27  
FORT MADISON * CLOUDY 39 34 81 NW10 30.08R WCI 32  
FREEPORT CLOUDY 37 31 79 NW13G21 29.98R WCI 28  
INDEPENDENCE MOSUNNY 38 29 70 N18 30.05R WCI 29  
KEOKUK * CLOUDY 39 34 81 NW16G24 30.08R WCI 30  
MACOMB PTSUNNY 40 35 81 NW21G26 30.07R WCI 30  
MONTICELLO * MOSUNNY 39 32 75 NW15 30.03R WCI 31  
MT PLEASANT * MOSUNNY 41 32 70 NW13G22 30.08R WCI 34  
MUSCATINE * CLOUDY 39 32 75 NW12G18 30.07R WCI 32  
SAVANNA * CLOUDY 41 32 70 NW13G20 30.00R WCI 34  
STERLING/R.F. CLOUDY 39 32 76 NW17G24 29.99R WCI 30  
VINTON MOSUNNY 40 32 71 N13G20 30.06R WCI 33  
WASHINGTON * CLOUDY 37 36 93 NW17G24 30.07R WCI 28  
------------------------------------------------------------------  
 
 
CLICK HERE TO GO TO PREVIOUS BULLETINS.

The Nexlab IL Page
The Nexlab IA Page
The Nexlab MO Page Main Text Page